Time,TemperatureF,DewpointF,PressureIn,WindDirection,WindDirectionDegrees,WindSpeedMPH,WindSpeedGustMPH,Humidity,HourlyPrecipIn,Conditions,Clouds,dailyrainin,SoftwareType,DateUTC
2013-02-17 00:13:00,9.1,5.0,30.27,SE,138,0.0,0.0,83,0.00,,,0.00,weatherlink.com 1.10,2013-02-17 06:13:00,
2013-02-17 00:28:00,9.2,5.0,30.27,ESE,107,0.0,3.0,83,0.00,,,0.00,weatherlink.com 1.10,2013-02-17 06:28:00,
2013-02-17 00:43:00,9.4,5.0,30.27,ESE,109,0.0,3.0,83,0.00,,,0.00,weatherlink.com 1.10,2013-02-17 06:43:00,
2013-02-17 00:58:00,9.6,5.0,30.28,SE,142,1.0,3.0,83,0.00,,,0.00,weatherlink.com 1.10,2013-02-17 06:58:00,
2013-02-17 01:13:00,9.8,5.0,30.28,ESE,109,0.0,4.0,82,0.00,,,0.00,weatherlink.com 1.10,2013-02-17 07:13:00,
2013-02-17 01:28:00,10.1,6.0,30.28,SE,144,1.0,3.0,82,0.00,,,0.00,weatherlink.com 1.10,2013-02-17 07:28:00,
2013-02-17 01:43:00,10.4,6.0,30.28,East,93,1.0,2.0,82,0.00,,,0.00,weatherlink.com 1.10,2013-02-17 07:43:00,
2013-02-17 01:59:00,10.3,6.0,30.27,SE,130,0.0,2.0,81,0.00,,,0.00,weatherlink.com 1.10,2013-02-17 07:59:00,
2013-02-17 02:13:00,10.5,6.0,30.28,SE,124,0.0,3.0,81,0.00,,,0.00,weatherlink.com 1.10,2013-02-17 08:13:00,
2013-02-17 02:28:00,10.6,6.0,30.28,South,177,0.0,3.0,81,0.00,,,0.00,weatherlink.com 1.10,2013-02-17 08:28:00,
2013-02-17 02:43:00,10.5,6.0,30.27,ESE,106,0.0,1.0,81,0.00,,,0.00,weatherlink.com 1.10,2013-02-17 08:43:00,
2013-02-17 02:58:00,10.3,6.0,30.27,SE,126,0.0,1.0,81,0.00,,,0.00,weatherlink.com 1.10,2013-02-17 08:58:00,
2013-02-17 03:14:00,10.0,5.0,30.26,ESE,113,0.0,2.0,81,0.00,,,0.00,weatherlink.com 1.10,2013-02-17 09:14:00,
2013-02-17 03:29:00,9.8,5.0,30.25,East,81,0.0,3.0,81,0.00,,,0.00,weatherlink.com 1.10,2013-02-17 09:29:00,
2013-02-17 03:44:00,9.8,5.0,30.25,ESE,120,0.0,3.0,82,0.00,,,0.00,weatherlink.com 1.10,2013-02-17 09:44:00,
2013-02-17 03:59:00,9.8,5.0,30.25,ESE,117,1.0,3.0,81,0.00,,,0.00,weatherlink.com 1.10,2013-02-17 09:59:00,
2013-02-17 04:14:00,9.9,5.0,30.24,ESE,112,0.0,3.0,81,0.00,,,0.00,weatherlink.com 1.10,2013-02-17 10:14:00,
2013-02-17 04:29:00,9.8,5.0,30.24,ESE,107,0.0,2.0,81,0.00,,,0.00,weatherlink.com 1.10,2013-02-17 10:29:00,
2013-02-17 04:44:00,9.6,5.0,30.24,East,100,0.0,2.0,82,0.00,,,0.00,weatherlink.com 1.10,2013-02-17 10:44:00,
2013-02-17 04:59:00,9.6,5.0,30.24,East,101,0.0,3.0,82,0.00,,,0.00,weatherlink.com 1.10,2013-02-17 10:59:00,
2013-02-17 05:14:00,9.6,5.0,30.23,SE,127,0.0,0.0,82,0.00,,,0.00,weatherlink.com 1.10,2013-02-17 11:14:00,
2013-02-17 05:29:00,9.6,5.0,30.22,SE,131,0.0,1.0,83,0.00,,,0.00,weatherlink.com 1.10,2013-02-17 11:29:00,
2013-02-17 05:44:00,9.8,6.0,30.22,SSE,165,0.0,2.0,83,0.00,,,0.00,weatherlink.com 1.10,2013-02-17 11:44:00,
2013-02-17 05:59:00,10.1,6.0,30.22,East,90,0.0,4.0,83,0.00,,,0.00,weatherlink.com 1.10,2013-02-17 11:59:00,
2013-02-17 06:14:00,10.2,6.0,30.21,SSE,154,0.0,2.0,83,0.00,,,0.00,weatherlink.com 1.10,2013-02-17 12:14:00,
2013-02-17 06:29:00,10.4,6.0,30.20,SSE,159,0.0,2.0,83,0.00,,,0.00,weatherlink.com 1.10,2013-02-17 12:29:00,
2013-02-17 06:44:00,10.7,7.0,30.20,SSE,159,0.0,1.0,83,0.00,,,0.00,weatherlink.com 1.10,2013-02-17 12:44:00,
2013-02-17 06:59:00,10.8,7.0,30.19,SE,125,1.0,3.0,83,0.00,,,0.00,weatherlink.com 1.10,2013-02-17 12:59:00,
2013-02-17 07:14:00,11.3,7.0,30.18,SE,142,0.0,5.0,83,0.00,,,0.00,weatherlink.com 1.10,2013-02-17 13:14:00,
2013-02-17 07:29:00,11.6,7.0,30.17,ESE,103,0.0,4.0,83,0.00,,,0.00,weatherlink.com 1.10,2013-02-17 13:29:00,
2013-02-17 07:44:00,12.2,8.0,30.17,ESE,109,0.0,4.0,83,0.00,,,0.00,weatherlink.com 1.10,2013-02-17 13:44:00,
2013-02-17 07:59:00,13.0,9.0,30.17,SE,135,0.0,5.0,82,0.00,,,0.00,weatherlink.com 1.10,2013-02-17 13:59:00,
2013-02-17 08:14:00,13.7,9.0,30.17,East,101,2.0,5.0,82,0.00,,,0.00,weatherlink.com 1.10,2013-02-17 14:14:00,
2013-02-17 08:29:00,14.5,10.0,30.16,South,172,0.0,4.0,81,0.00,,,0.00,weatherlink.com 1.10,2013-02-17 14:29:00,
2013-02-17 08:44:00,15.4,10.0,30.16,SSE,150,1.0,7.0,80,0.00,,,0.00,weatherlink.com 1.10,2013-02-17 14:44:00,
2013-02-17 08:59:00,16.1,11.0,30.16,SSE,156,2.0,8.0,80,0.00,,,0.00,weatherlink.com 1.10,2013-02-17 14:59:00,
2013-02-17 09:15:00,17.0,12.0,30.15,ESE,122,2.0,8.0,79,0.00,,,0.00,weatherlink.com 1.10,2013-02-17 15:15:00,
2013-02-17 09:30:00,18.0,13.0,30.14,SE,145,2.0,9.0,79,0.00,,,0.00,weatherlink.com 1.10,2013-02-17 15:30:00,
2013-02-17 09:44:00,19.0,14.0,30.14,SE,124,2.0,8.0,79,0.00,,,0.00,weatherlink.com 1.10,2013-02-17 15:44:00,
2013-02-17 10:00:00,20.1,14.0,30.13,SE,125,5.0,8.0,78,0.00,,,0.00,weatherlink.com 1.10,2013-02-17 16:00:00,
2013-02-17 10:15:00,21.1,15.0,30.12,SSE,157,3.0,7.0,77,0.00,,,0.00,weatherlink.com 1.10,2013-02-17 16:15:00,
2013-02-17 10:30:00,22.0,16.0,30.12,SSE,163,6.0,9.0,76,0.00,,,0.00,weatherlink.com 1.10,2013-02-17 16:30:00,
2013-02-17 10:45:00,23.5,16.0,30.12,SSE,156,5.0,10.0,74,0.00,,,0.00,weatherlink.com 1.10,2013-02-17 16:45:00,
2013-02-17 11:00:00,24.3,17.0,30.12,ESE,107,1.0,10.0,73,0.00,,,0.00,weatherlink.com 1.10,2013-02-17 17:00:00,
2013-02-17 11:15:00,24.9,17.0,30.11,SE,124,0.0,9.0,72,0.00,,,0.00,weatherlink.com 1.10,2013-02-17 17:15:00,
2013-02-17 11:30:00,25.6,17.0,30.11,SE,127,3.0,10.0,71,0.00,,,0.00,weatherlink.com 1.10,2013-02-17 17:30:00,
2013-02-17 11:45:00,26.0,18.0,30.10,South,170,3.0,9.0,71,0.00,,,0.00,weatherlink.com 1.10,2013-02-17 17:45:00,
2013-02-17 12:00:00,26.9,19.0,30.08,ESE,113,3.0,10.0,71,0.00,,,0.00,weatherlink.com 1.10,2013-02-17 18:00:00,
2013-02-17 12:15:00,27.7,19.0,30.07,SSE,153,5.0,13.0,70,0.00,,,0.00,weatherlink.com 1.10,2013-02-17 18:15:00,
2013-02-17 12:30:00,28.2,20.0,30.06,East,92,5.0,11.0,70,0.00,,,0.00,weatherlink.com 1.10,2013-02-17 18:30:00,
2013-02-17 12:45:00,28.8,20.0,30.05,ESE,119,3.0,13.0,69,0.00,,,0.00,weatherlink.com 1.10,2013-02-17 18:45:00,
2013-02-17 13:00:00,29.4,20.0,30.04,SE,144,3.0,11.0,69,0.00,,,0.00,weatherlink.com 1.10,2013-02-17 19:00:00,
2013-02-17 13:16:00,29.6,21.0,30.03,SE,126,3.0,12.0,69,0.00,,,0.00,weatherlink.com 1.10,2013-02-17 19:16:00,
2013-02-17 13:30:00,29.8,21.0,30.02,South,182,10.0,15.0,69,0.00,,,0.00,weatherlink.com 1.10,2013-02-17 19:30:00,
2013-02-17 13:46:00,30.3,21.0,30.01,SSE,165,6.0,16.0,69,0.00,,,0.00,weatherlink.com 1.10,2013-02-17 19:46:00,
2013-02-17 14:00:00,31.4,23.0,30.00,South,186,4.0,13.0,70,0.00,,,0.00,weatherlink.com 1.10,2013-02-17 20:00:00,
2013-02-17 14:15:00,31.3,22.0,29.99,SE,140,4.0,14.0,68,0.00,,,0.00,weatherlink.com 1.10,2013-02-17 20:15:00,
2013-02-17 14:30:00,31.7,22.0,29.98,SSE,164,7.0,18.0,68,0.00,,,0.00,weatherlink.com 1.10,2013-02-17 20:30:00,
2013-02-17 14:45:00,31.5,22.0,29.97,ESE,123,7.0,18.0,68,0.00,,,0.00,weatherlink.com 1.10,2013-02-17 20:45:00,
2013-02-17 15:00:00,31.5,22.0,29.96,ESE,117,2.0,19.0,68,0.00,,,0.00,weatherlink.com 1.10,2013-02-17 21:00:00,
2013-02-17 15:17:00,31.9,23.0,29.96,SSE,159,4.0,13.0,69,0.00,,,0.00,weatherlink.com 1.10,2013-02-17 21:17:00,
2013-02-17 15:31:00,31.7,23.0,29.95,SSE,157,6.0,17.0,69,0.00,,,0.00,weatherlink.com 1.10,2013-02-17 21:31:00,
2013-02-17 15:46:00,31.9,23.0,29.95,South,189,9.0,14.0,69,0.00,,,0.00,weatherlink.com 1.10,2013-02-17 21:46:00,
2013-02-17 16:01:00,32.1,23.0,29.94,East,101,2.0,13.0,69,0.00,,,0.00,weatherlink.com 1.10,2013-02-17 22:01:00,
2013-02-17 16:16:00,32.0,23.0,29.92,ESE,104,3.0,14.0,69,0.00,,,0.00,weatherlink.com 1.10,2013-02-17 22:16:00,
2013-02-17 16:31:00,31.8,23.0,29.91,ESE,121,2.0,13.0,70,0.00,,,0.00,weatherlink.com 1.10,2013-02-17 22:31:00,
2013-02-17 16:46:00,31.8,23.0,29.91,East,91,3.0,12.0,70,0.00,,,0.00,weatherlink.com 1.10,2013-02-17 22:46:00,
2013-02-17 17:01:00,31.7,23.0,29.90,SSE,152,3.0,16.0,71,0.00,,,0.00,weatherlink.com 1.10,2013-02-17 23:01:00,
2013-02-17 17:16:00,31.5,23.0,29.90,ESE,121,7.0,14.0,71,0.00,,,0.00,weatherlink.com 1.10,2013-02-17 23:16:00,
2013-02-17 17:31:00,31.3,23.0,29.89,SSE,166,8.0,10.0,71,0.00,,,0.00,weatherlink.com 1.10,2013-02-17 23:31:00,
2013-02-17 17:46:00,31.0,23.0,29.89,SSE,148,2.0,10.0,72,0.00,,,0.00,weatherlink.com 1.10,2013-02-17 23:46:00,
2013-02-17 18:01:00,31.0,23.0,29.88,South,175,3.0,11.0,72,0.00,,,0.00,weatherlink.com 1.10,2013-02-18 00:01:00,
2013-02-17 18:16:00,30.9,23.0,29.88,NNE,25,2.0,14.0,73,0.00,,,0.00,weatherlink.com 1.10,2013-02-18 00:16:00,
2013-02-17 18:31:00,30.8,23.0,29.88,South,178,4.0,14.0,73,0.00,,,0.00,weatherlink.com 1.10,2013-02-18 00:31:00,
2013-02-17 18:46:00,30.6,23.0,29.87,South,179,6.0,12.0,74,0.00,,,0.00,weatherlink.com 1.10,2013-02-18 00:46:00,
2013-02-17 19:01:00,30.6,23.0,29.87,SSE,153,3.0,13.0,74,0.00,,,0.00,weatherlink.com 1.10,2013-02-18 01:01:00,
2013-02-17 19:16:00,30.6,24.0,29.87,SSE,155,5.0,17.0,75,0.00,,,0.00,weatherlink.com 1.10,2013-02-18 01:16:00,
2013-02-17 19:31:00,30.1,23.0,29.87,SE,129,3.0,10.0,75,0.00,,,0.00,weatherlink.com 1.10,2013-02-18 01:31:00,
2013-02-17 19:46:00,29.6,23.0,29.87,SE,129,4.0,7.0,75,0.00,,,0.00,weatherlink.com 1.10,2013-02-18 01:46:00,
2013-02-17 20:01:00,29.1,22.0,29.87,SE,128,3.0,6.0,76,0.00,,,0.00,weatherlink.com 1.10,2013-02-18 02:01:00,
2013-02-17 20:16:00,28.9,23.0,29.86,ESE,119,0.0,9.0,77,0.00,,,0.00,weatherlink.com 1.10,2013-02-18 02:16:00,
2013-02-17 20:31:00,28.8,22.0,29.86,SE,126,3.0,8.0,77,0.00,,,0.00,weatherlink.com 1.10,2013-02-18 02:31:00,
2013-02-17 20:46:00,28.7,22.0,29.85,ESE,122,2.0,6.0,77,0.00,,,0.00,weatherlink.com 1.10,2013-02-18 02:46:00,
2013-02-17 21:01:00,28.7,23.0,29.85,East,92,1.0,7.0,78,0.00,,,0.00,weatherlink.com 1.10,2013-02-18 03:01:00,
2013-02-17 21:16:00,28.8,22.0,29.84,ESE,115,2.0,7.0,77,0.00,,,0.00,weatherlink.com 1.10,2013-02-18 03:16:00,
2013-02-17 21:31:00,28.6,23.0,29.84,SE,146,0.0,4.0,78,0.00,,,0.00,weatherlink.com 1.10,2013-02-18 03:31:00,
2013-02-17 21:46:00,28.4,22.0,29.84,ESE,112,5.0,5.0,78,0.00,,,0.00,weatherlink.com 1.10,2013-02-18 03:46:00,
2013-02-17 22:01:00,28.4,22.0,29.83,ESE,113,3.0,5.0,78,0.00,,,0.00,weatherlink.com 1.10,2013-02-18 04:01:00,
2013-02-17 22:16:00,28.4,23.0,29.82,East,91,3.0,5.0,79,0.00,,,0.00,weatherlink.com 1.10,2013-02-18 04:16:00,
2013-02-17 22:31:00,28.3,23.0,29.81,ESE,105,1.0,7.0,79,0.00,,,0.00,weatherlink.com 1.10,2013-02-18 04:31:00,
2013-02-17 22:47:00,28.5,23.0,29.80,SE,127,3.0,8.0,79,0.00,,,0.00,weatherlink.com 1.10,2013-02-18 04:47:00,
2013-02-17 23:01:00,28.6,23.0,29.80,SSE,147,5.0,8.0,78,0.00,,,0.00,weatherlink.com 1.10,2013-02-18 05:01:00,
2013-02-17 23:17:00,28.7,23.0,29.79,ESE,109,2.0,7.0,78,0.00,,,0.00,weatherlink.com 1.10,2013-02-18 05:17:00,
2013-02-17 23:31:00,28.8,23.0,29.78,East,99,2.0,6.0,78,0.00,,,0.00,weatherlink.com 1.10,2013-02-18 05:31:00,
2013-02-17 23:46:00,28.8,23.0,29.77,SE,138,2.0,7.0,78,0.00,,,0.00,weatherlink.com 1.10,2013-02-18 05:46:00,